Location: �pia
(19.9527°S, 43.9553°W)
Time: 15:51:40
(UTC+00:00)

Daily predictions for brighter satellites

Satellite Brightness Start Highest point End
(mag) Time Altitude Azimuth Time Altitude Azimuth Time Altitude Azimuth
Centaur D AC-29 3.0 21:21:53 10° WSW 21:26:01 53° SSE 21:42:28 10° E
MOS 1-B 4.5 21:42:15 10° SSE 21:48:06 86° W 21:53:51 10° NNW
Cosmos 2278 3.9 21:43:03 10° N 21:48:28 50° ENE 21:53:56 10° SSE
Cosmos 1607 4.1 21:44:49 10° SSW 21:51:10 63° ESE 21:57:30 10° NE
USA 215 4.3 21:46:07 10° ENE 21:51:45 32° SE 21:57:25 10° SSW
SL-24 R/B - RUBIN 2 4.2 21:49:07 10° N 21:53:20 38° ENE 21:57:58 10° SE
Cosmos 1553 Rocket 4.1 21:49:47 10° S 21:56:14 89° W 22:02:31 10° N
S3M 4.1 21:53:26 10° S 21:59:28 57° E 22:05:28 10° NNE
Cosmos 2297 Rocket 2.4 21:54:29 10° S 22:00:04 56° ESE 22:05:34 10° NNE
Cosmos 1862 Rocket 3.6 21:55:47 10° S 22:00:16 71° E 22:04:40 10° N
SL-08 RB Rocket 3.8 21:55:46 10° SSE 22:00:24 58° E 22:04:59 10° N
HJ-1C 4.3 21:58:23 10° SE 22:01:19 28° E 22:04:12 10° NNE
USA 276 3.2 22:02:20 10° N 22:04:55 23° NE 22:07:30 10° ESE
Cosmos 1655 Rocket 4.4 22:00:52 10° NNW 22:07:06 69° W 22:13:21 10° S
ATLAS 2A CENTAUR R/B 3.2 22:05:46 10° WSW 22:07:32 18° S 22:09:02 10° SE
Cosmos 1400 Rocket 4.1 22:10:18 12° NE 22:12:54 21° E 22:15:55 10° SE
Okean O Rocket 2.2 22:09:36 10° S 22:14:00 63° WSW 22:18:23 10° NNW
Cosmos 2298 Rocket 4.1 22:11:34 10° N 22:16:47 58° ENE 22:22:02 10° SSE
Cosmos 1680 Rocket 3.5 22:11:50 10° SSW 22:17:09 85° ESE 22:22:26 10° NNE
H-2A R/B 4.3 22:16:12 10° SSW 22:20:52 30° WSW 22:25:26 10° NW
Cosmos 967 Rocket 4.4 22:16:38 10° SSW 22:22:53 75° ESE 22:28:29 13° NNE
Okean-O 3.5 22:19:39 10° SE 22:23:31 29° E 22:26:21 15° NNE
H-2A R/B 2.3 22:19:45 10° SSE 22:23:35 57° ENE 22:27:19 10° N
CZ-4 R/B 1.4 22:19:42 10° SSE 22:23:57 74° E 22:28:07 10° N
Cosmos 1536 3.3 22:20:41 10° NNW 22:24:37 62° W 22:28:35 10° S
Milstar 3 Cent rocket 2.5 22:23:44 10° WNW 22:28:29 71° SSW 22:35:55 10° ESE
Delta 168 4.4 22:20:37 10° WSW 22:28:41 60° S 22:33:11 15° E
CZ-4B R/B 4.0 22:29:40 10° NW 22:31:47 17° W 22:33:55 10° SW
Cosmos 2360 Rocket 4.0 22:34:18 12° E 22:34:18 12° E 22:35:18 10° ESE
IRS-1C Rocket 4.4 22:27:52 10° SSE 22:32:57 46° E 22:37:59 10° N
Meteor 1-13 Rocket 4.3 22:27:09 10° S 22:32:58 64° E 22:38:11 13° NNE
OBJECT-B 2.3 22:30:34 10° SE 22:32:17 20° ESE 22:32:17 20° ESE
Cosmos 1818 4.1 22:29:09 10° N 22:33:57 34° ENE 22:38:45 10° SE
Okean 3 4.4 22:31:19 10° SSE 22:35:08 30° E 22:36:20 26° ENE
Cosmos 2227 Rocket 2.2 22:30:37 10° SSW 22:36:20 86° ESE 22:40:55 16° NNE
Cosmos 2242 Rocket 3.8 22:33:58 10° S 22:38:18 49° E 22:40:29 26° NE
Cosmos 1703 Rocket 3.5 22:34:59 10° S 22:39:18 60° E 22:41:48 24° NNE
Yuri Rocket 3.9 22:35:02 10° WSW 22:40:09 65° NNW 22:44:11 25° NE
CSL-04 Rocket 4.2 22:36:45 10° SSE 22:41:55 39° E 22:44:58 21° NNE
FUSE 4.2 22:37:50 10° WSW 22:43:10 65° SSE 22:46:25 23° E
Aureole 2 4.2 22:40:41 10° S 22:43:44 50° ESE 22:44:00 48° E
Cosmos 2315 Rocket 3.9 22:38:22 10° S 22:44:37 76° E 22:49:57 14° N
Okean 1-7 2.9 22:40:43 10° S 22:45:03 75° E 22:47:28 25° NNE
GPS 2-17 Rocket1 3.0 22:44:35 10° W 22:49:18 89° S 22:51:17 34° E
Palapa 6 Rocket 4.2 22:42:06 10° W 22:49:46 79° S 22:54:49 18° ESE
BREEZE-M DEB (TANK) 3.1 22:49:40 10° WSW 22:51:45 36° NW 22:52:22 32° NNW
Atlas Centaur 2 1.0 22:49:55 10° WNW 22:53:35 89° NNE 22:55:35 29° ESE
Cosmos 1869 Rocket 4.4 22:50:14 10° NNW 22:54:27 50° W 22:58:45 10° S
Cosmos 2322 Rocket 2.4 22:50:04 13° N 22:54:58 49° ENE 23:00:26 10° SSE
BREEZE-M TANK 3.3 22:51:51 10° SW 22:55:36 90° E 22:59:54 28° NE
CSL-04 DEB 4.4 22:55:03 32° N 22:56:53 82° W 23:00:54 10° SSW
Cosmos 1125 Rocket 4.1 22:52:31 10° NNW 22:57:44 59° WSW 23:03:00 10° S
Lacrosse 4 Rocket 1.3 22:56:15 10° SSW 23:00:15 61° ESE 23:00:42 56° ENE
CZ-4C R/B 3.1 22:53:19 10° NNW 23:02:06 87° ENE 23:10:10 10° SSE
Ariane H10-3 4.1 22:58:00 10° NNW 23:25:57 - E 23:00:58 21° NNE
Cosmos 1975 3.0 23:08:43 53° ESE 23:08:43 53° ESE 23:12:15 10° SSE
SJ-6B 3.6 23:09:12 10° SSE 23:11:39 36° SE 23:11:39 36° SE
Cosmos 2219 4.4 23:09:52 10° SW 23:15:03 37° WNW 23:18:57 16° NNW
SL-16 R/B 2.4 23:09:54 10° NNW 23:15:32 71° WSW 23:21:13 10° SSE
Meteor 2-17 Rocket 4.4 23:11:18 19° N 23:15:52 89° W 23:22:05 10° S
GPS 2-14 Rocket1 3.8 23:12:51 10° WNW 23:15:09 31° NW 23:15:09 31° NW
DELTA 2 R/B (1) 4.0 23:15:58 10° SW 23:21:27 50° SSE 23:22:33 44° ESE
Cosmos 1689 Rocket 4.5 23:22:26 19° W 23:22:26 19° W 23:24:02 10° SW
CZ-3 Stage 3 2.0 23:17:35 10° WNW 23:23:56 45° SSW 23:24:15 43° S
Cosmos 1733 Rocket 3.0 23:25:07 77° WNW 23:25:17 79° W 23:29:41 10° S
Cosmos 1340 3.7 23:23:42 10° SSW 23:27:16 40° W 23:27:30 39° WNW
Cosmos 44 Rocket 4.0 23:28:43 10° NW 23:33:10 49° WSW 23:37:41 10° S
USA 215 3.8 23:32:07 34° N 23:34:27 48° NW 23:40:46 10° SW
Cosmos 2333 Rocket 4.4 23:40:49 12° SE 23:40:49 12° SE 23:41:14 10° SE
Nadezhda 1 Rocket 4.3 23:31:16 10° S 23:36:37 47° ESE 23:36:37 47° ESE
FALCON 9 R/B 3.1 23:15:54 10° W 23:39:10 63° SSW 23:41:56 31° SE
Cosmos 2082 4.3 23:34:45 10° SSW 23:40:15 51° WNW 23:41:29 43° NW
CZ-2C R/B 4.1 23:44:30 61° SW 23:44:30 61° SW 23:48:24 10° SSW
Centaur Rocket 3.9 23:32:12 10° W 23:45:37 71° N 23:45:43 71° N
Cosmos 371 Rocket 3.9 23:52:03 54° SW 23:52:03 54° SW 23:56:25 10° S
